Flag for Canada Weather past 2 weeks in Grande Prairie, Alberta, Canada

Now
77 °F

Partly sunny.


Feels Like: 79 °F
Forecast: 52 / 79 °F
Wind: 7 mph from North

Location: Grande Prairie

Current Time: Jul 23, 2014 at 5:58:44 PM

Latest Report: Jul 23, 2014 at 5:00 PM


Visibility: 20 mi

Pressure: 29.90 "Hg

Humidity: 47%

Dew point: 55 °F

Location of Grande PrairieLocation

Historic Weather in Grande Prairie — Graph

°F

Grande Prairie temperature yesterday

Maximum temperature yesterday: 81 °F (at 5:00 PM)
Minimum temperature yesterday: 50 °F (at 4:00 AM)
Average temperature yesterday: 62 °F

Past Weeks' High & Low Weather Summary

 TemperatureHumidityPressure
High93 °F (Jul 15, 5:00 PM)100% (Jul 11, 5:00 AM)30.17 "Hg (Jul 11, 5:00 AM)
Low45 °F (Jul 11, 5:00 AM)16% (Jul 13, 4:00 PM)29.57 "Hg (Jul 19, 5:00 AM)
Average66 °F63%29.92 "Hg
* Reported Jul 8 4:00 PM — Jul 23 4:00 PM, Grande Prairie, Weather by CustomWeather, © 2014

Note: Actual official high and low records may vary slightly from our data, if they occured in-between our weather recording intervals... More about our weather records

Advertising

Grande Prairie weather history for previous 24 hours

 ConditionsComfort  
Time TempWeatherWind HumidityBarometerVisibility
4:00 PM
Jul 23
79 °FScattered clouds.6 mph45%29.92 "Hg25 mi
3:00 PM79 °FScattered clouds.10 mph42%29.94 "Hg25 mi
2:00 PM77 °FPartly sunny.8 mph44%29.96 "Hg25 mi
1:00 PM75 °FPartly sunny.8 mph44%29.97 "Hg25 mi
12:00 PM75 °FScattered clouds.10 mph47%29.98 "Hg25 mi
11:00 AM70 °FScattered clouds.9 mph60%30.00 "Hg25 mi
10:00 AM66 °FPartly sunny.10 mph64%30.02 "Hg25 mi
9:00 AM64 °FPartly sunny.10 mph68%30.02 "Hg25 mi
8:00 AM59 °FPassing clouds.No wind82%30.01 "Hg25 mi
7:00 AM54 °FScattered clouds.2 mph88%30.02 "Hg25 mi
6:00 AM54 °FPassing clouds.8 mph88%30.03 "Hg25 mi
5:00 AM57 °FPassing clouds.3 mph82%30.02 "Hg25 mi
4:00 AM57 °FPassing clouds.6 mph82%30.01 "Hg25 mi
3:00 AM57 °FPassing clouds.9 mph82%30.01 "Hg25 mi
2:00 AM55 °FPassing clouds.5 mph88%30.00 "Hg25 mi
12:00 AM63 °FPassing clouds.7 mph73%29.99 "Hg25 mi
11:00 PM
Jul 22
64 °FPartly sunny.7 mph64%29.98 "Hg25 mi
10:00 PM66 °FPartly sunny.8 mph60%29.98 "Hg25 mi
9:00 PM75 °FPartly sunny.8 mph39%29.97 "Hg25 mi
8:00 PM79 °FPartly sunny.15 mph34%29.97 "Hg25 mi
7:00 PM81 °FPartly sunny.12 mph28%29.98 "Hg25 mi
6:00 PM81 °FPartly sunny.12 mph30%29.99 "Hg20 mi
5:00 PM81 °FPartly sunny.9 mph32%30.00 "Hg20 mi
Weather by CustomWeather, © 2014

See weather overviewHow to use our weather pages